Back to catalog

CZ-4 DEB

AliveSSO
NORAD 29043·DEBRIS·🇨🇳 China

Launched Sep 8, 2004 from Taiyuan Satellite Launch Center

Loading…

Next Passes (next 24 hours)

TLE

FreshSource: Space-Track

Epoch: Sep 14, 2026, 07:13 UTC

1 29043U 04035K   26257.30115541  .00001543  00000-0  98466-4 0  9992
2 29043  97.5725 279.1328 0002095 135.8489 224.2908 15.10168661132852

Track CZ-4 DEB in real time with AllMySat

Download on the App Store